Regional Weather Roundup
Issued by NWS

Home | Current Version | Previous Version | Graphics & Text | Print | Product List | Glossary On
Versions: 1 2 3 4 5 6 7 8 9 10 11 12 13 14 15 16 17 18 19 20 21 22 23 24 25 26 27 28
000
ASUS45 KCYS 171810
RWRWY

WYOMING REGIONAL WEATHER ROUNDUP
NATIONAL WEATHER SERVICE CHEYENNE WY
1200 PM MDT THU APR 17 2014

NOTE:  "FAIR" INDICATES FEW OR NO CLOUDS BELOW 12,000 FEET
WITH NO SIGNIFICANT WEATHER AND/OR OBSTRUCTIONS TO VISIBILITY.

WYZ001-171900-
YELLOWSTONE NATIONAL PARK

CITY           SKY/WX    TMP DP  RH WIND       PRES   REMARKS
LK YELLOWSTONE   N/A     40  14  34 VRB3      30.03F
6HR MIN TEMP:  13; 6HR MAX TEMP:  41;

W YELLOWSTONE  NOT AVBL

$$
WYZ002>013-054>058-071-098>099-171900-
NORTHERN WYOMING

CITY           SKY/WX    TMP DP  RH WIND       PRES   REMARKS
JACKSON        SUNNY     45  18  33 SW9       30.04F
CODY           SUNNY     54  23  30 S15       29.93F
GREYBULL       SUNNY     53  27  36 S8G18     29.96F
6HR MIN TEMP:  30; 6HR MAX TEMP:  54;

WORLAND        SUNNY     56  24  29 S9        29.95F
6HR MIN TEMP:  30; 6HR MAX TEMP:  56;

SHERIDAN       SUNNY     50  39  66 CALM      29.97F
6HR MIN TEMP:  32; 6HR MAX TEMP:  51;

BUFFALO        PTSUNNY  N/A N/A N/A MISG      29.98F
GILLETTE       SUNNY     51  36  56 S12       30.00F
6HR MIN TEMP:  33; 6HR MAX TEMP:  51;

HULETT         FAIR      46  32  57 S15G22    30.04
NEWCASTLE      CLOUDY    41  32  70 S12       30.08

$$
WYZ014>020-022>026-101>103-171900-
CENTRAL WYOMING

CITY           SKY/WX    TMP DP  RH WIND       PRES   REMARKS
BIG PINEY      SUNNY     47  14  26 VRB3      30.08F
6HR MIN TEMP:  16; 6HR MAX TEMP:  47;

PINEDALE       CLEAR     43  19  39 CALM      30.09F
DUBOIS         FAIR      45  14  29 W20G29    30.00S
LANDER         SUNNY     48  27  44 VRB3      30.00F
6HR MIN TEMP:  25; 6HR MAX TEMP:  49;

RIVERTON       SUNNY     48  27  44 VRB5      30.01F
6HR MIN TEMP:  25; 6HR MAX TEMP:  48;

CASPER         SUNNY     53  27  36 SW18G28   30.02F
6HR MIN TEMP:  29; 6HR MAX TEMP:  53;

DOUGLAS        SUNNY     50  35  56 SE10      30.05F
6HR MIN TEMP:  31; 6HR MAX TEMP:  50;


$$
WYZ021-027>030-104>119-171900-
SOUTHERN WYOMING

CITY           SKY/WX    TMP DP  RH WIND       PRES   REMARKS
EVANSTON       SUNNY     50  20  30 SW13G21   30.09F
6HR MIN TEMP:  28; 6HR MAX TEMP:  51;

KEMMERER       CLEAR     50  18  27 W13G21    30.09F
FORT BRIDGER   FAIR      52  19  26 NW5G21    30.11F
ROCK SPRINGS   SUNNY     52  14  22 W16       30.08F
6HR MIN TEMP:  29; 6HR MAX TEMP:  52;

DIXON          FAIR      51  18  27 W7        30.13F
RAWLINS        SUNNY     50  14  23 W14G24    30.08F
6HR MIN TEMP:  18; 6HR MAX TEMP:  50;

SARATOGA       FAIR      50  16  25 W17G29    30.10F
LARAMIE        SUNNY     45  16  31 VRB5      30.08F
6HR MIN TEMP:  21; 6HR MAX TEMP:  46;

CHEYENNE       SUNNY     52  14  22 NW13G20   30.07S
6HR MIN TEMP:  29; 6HR MAX TEMP:  52;

TORRINGTON     MOSUNNY   46  36  68 SE10      30.08F
6HR MIN TEMP:  30; 6HR MAX TEMP:  46;

PINE BLUFFS    FAIR      50  32  50 S6        30.09F

$$



USA.gov is the U.S. government's official web portal to all federal, state and local government web resources and services.